This is the latest recevied weather packets stored in our database for station/object K1RFS. If no packets are shown the sender has not sent any weather packets the latest 10 day(s).
| Time | Temp. | Humidity | Pressure | Rain* | Wind** | Luminosity | Snow |
|---|---|---|---|---|---|---|---|
| 1778113219 | 17.78° C | 21% | 1004.7 hPa | 0 mm | - | 222 W/m² | - |
| 1778112915 | 17.22° C | 22% | 1004.9 hPa | 0 mm | - | 236 W/m² | - |
| 1778112613 | 17.78° C | 22% | 1004.8 hPa | 0 mm | - | 245 W/m² | - |
| 1778112308 | 17.78° C | 22% | 1004.8 hPa | 0 mm | - | 259 W/m² | - |
| 1778112004 | 17.22° C | 22% | 1004.8 hPa | 0 mm | - | 269 W/m² | - |
| 1778111702 | 17.22° C | 22% | 1004.6 hPa | 0 mm | - | 281 W/m² | - |
| 1778111397 | 17.22° C | 22% | 1004.5 hPa | 0 mm | - | 296 W/m² | - |
| 1778111095 | 17.22° C | 22% | 1004.8 hPa | 0 mm | - | 308 W/m² | - |
| 1778110792 | 17.22° C | 22% | 1004.7 hPa | 0 mm | - | 321 W/m² | - |
| 1778110489 | 17.22° C | 21% | 1004.9 hPa | 0 mm | - | 333 W/m² | - |
| 1778110185 | 17.78° C | 22% | 1004.6 hPa | 0 mm | - | 345 W/m² | - |
| 1778109882 | 17.22° C | 21% | 1004.6 hPa | 0 mm | - | 357 W/m² | - |
| 1778109577 | 17.22° C | 22% | 1004.6 hPa | 0 mm | - | 368 W/m² | - |
| 1778109275 | 16.67° C | 22% | 1004.6 hPa | 0 mm | - | 380 W/m² | - |
| 1778108972 | 16.67° C | 22% | 1004.8 hPa | 0 mm | - | 393 W/m² | - |
| 1778108668 | 17.22° C | 22% | 1004.7 hPa | 0 mm | - | 403 W/m² | - |
| 1778108365 | 17.22° C | 21% | 1004.7 hPa | 0 mm | - | 415 W/m² | - |
| 1778108063 | 16.67° C | 22% | 1004.7 hPa | 0 mm | - | 426 W/m² | - |
| 1778107760 | 16.67° C | 22% | 1004.8 hPa | 0 mm | - | 438 W/m² | - |
| 1778107457 | 17.22° C | 22% | 1004.8 hPa | 0 mm | - | 449 W/m² | - |
| 1778107153 | 16.67° C | 22% | 1005 hPa | 0 mm | - | 458 W/m² | - |
| 1778106848 | 16.67° C | 23% | 1004.8 hPa | 0 mm | - | 470 W/m² | - |
| 1778106546 | 16.11° C | 23% | 1004.9 hPa | 0 mm | - | 482 W/m² | - |
| 1778106242 | 16.11° C | 23% | 1005 hPa | 0 mm | - | 493 W/m² | - |
| 1778105939 | 17.22° C | 23% | 1005 hPa | 0 mm | - | 496 W/m² | - |
* Rain latest hour (hover to see other rain measurements)
** Current wind speed in m/s (hover to see current wind gust speed)